Regional Weather Roundup
Issued by NWS

Home | Current Version | Previous Version | Text Only | Print | Product List | Glossary On
Versions: 1 2 3 4 5 6 7 8 9 10 11 12 13 14 15 16 17 18 19 20 21 22 23 24 25 26 27 28 29 30 31 32 33 34 35 36 37 38 39 40 41 42 43 44 45 46 47 48 49 50
000
ASUS43 KFSD 200402
RWRSD

WEATHER ROUNDUP FOR SOUTH DAKOTA
NATIONAL WEATHER SERVICE SIOUX FALLS SD
1000 PM CST FRI JAN 19 2018

NOTE: "FAIR" INDICATES FEW OR NO CLOUDS BELOW 12,000 FEET WITH NO
SIGNIFICANT WEATHER AND/OR OBSTRUCTIONS TO VISIBILITY.


SDZ001>005-009-010-012>017-200500-
NORTHWEST AND NORTH CENTRAL SOUTH DAKOTA

CITY           SKY/WX    TMP DP  RH WIND       PRES   REMARKS
BUFFALO          N/A     36  33  89 SW7       29.69R
FAITH            N/A     36  33  89 NW6       29.76R
MOBRIDGE       CLOUDY    35  30  82 CALM      29.72R
$$

SDZ012>016-024>037-041>051-057-063-072>074-200500-
SOUTHWEST AND SOUTH CENTRAL SOUTH DAKOTA

CITY           SKY/WX    TMP DP  RH WIND       PRES   REMARKS
RAPID CTY ARPT CLOUDY    33  30  88 CALM      29.76R
PIERRE         CLEAR     29  28  96 NW8       29.76R WCI  21
CUSTER         CLOUDY    29  24  82 N3        29.72S
ELLSWORTH AFB  CLOUDY    34  34  99 CALM      29.75R
PHILIP         CLEAR     29  28  96 W8        29.78R WCI  21
PINE RIDGE     PTCLDY    27  26  96 E3        29.76R
SPEARFISH      LGT RAIN  34  32  93 S6        29.75S WCI  29
WINNER         FAIR      36  30  79 SW7       29.77R
$$

SDZ004>011-016>023-039-040-200500-
NORTHEAST SOUTH DAKOTA

CITY           SKY/WX    TMP DP  RH WIND       PRES   REMARKS
ABERDEEN       PTCLDY    23  21  92 SW6       29.73R WCI  16
WATERTOWN      CLOUDY    32  29  88 W6        29.71R WCI  26
BROOKINGS      CLOUDY    34  29  82 W7        29.73R WCI  28
SISSETON         N/A     33  27  78 NW9       29.69R WCI  25
$$

SDZ017-020-022-023-036>040-048>070-200500-
SOUTHEAST SOUTH DAKOTA

CITY           SKY/WX    TMP DP  RH WIND       PRES   REMARKS
SIOUX FALLS    CLOUDY    35  31  85 CALM      29.74R
HURON          PTCLDY    30  27  88 W5        29.74S WCI  25
CHAMBERLAIN    PTCLDY    33  32  96 CALM      29.75S
MITCHELL       CLOUDY    33  30  88 W5        29.77R WCI  29
YANKTON        CLOUDY    36  30  79 W3        29.75R
$$

ABBREVIATIONS USED IN REMARKS
   TC - TEMPERATURE IN CELSIUS
  WCI - WIND CHILL INDEX
   HX - HEAT INDEX
  VSB - VISIBILITY




USA.gov is the U.S. government's official web portal to all federal, state and local government web resources and services.